RH
97 96 98 89 91 90 83 81 84 76 90 67 55 50 47 48 50 50 50 50 49 49 50 51 53 54 56 58 59 61 62 62 66 75 77 71 75 58 47 36 33 32 31 33
99 94 97 96 94 92 93 94 97 86 74 61 56 50 49 50 50 50 53 55 56 56 57 58 61 63 62 62 63 61 63 67 76 79 75 77 63 48 37 33 33 34 34 27
94 92 96 98 96 95 97 94 89 80 65 58 54 52 54 54 55 57 62 61 60 59 62 63 65 66 63 63 64 64 66 79 81 79 80 65 49 38 36 33 37 34 28 25
97 76 79 70 66 73 75 75 71 74 65 60 60 62 61 61 61 62 64 65 63 59 60 62 66 66 66 64 62 70 80 81 82 81 65 50 38 34 33 39 35 30 26 23
95 86 74 69 64 64 70 72 72 68 65 66 64 62 64 62 63 63 62 62 62 64 68 70 64 61 61 67 78 79 82 82 76 63 46 36 34 35 40 36 31 28 26 24
89 84 79 66 62 59 63 71 63 62 59 60 65 68 65 62 61 62 63 63 67 68 69 71 69 70 76 79 80 78 78 69 55 45 37 33 36 41 37 33 30 28 26 24
87 87 75 68 65 60 62 61 58 57 55 54 57 59 61 60 62 62 65 68 69 69 69 71 76 79 76 73 76 71 56 50 45 36 33 38 40 37 34 33 30 28 25 23
87 87 77 66 66 62 60 58 56 55 55 56 58 60 62 63 61 62 63 66 69 73 74 76 76 73 74 69 53 49 49 44 36 33 39 40 38 37 35 33 30 26 24 23
76 78 71 71 66 66 65 64 63 59 57 56 58 60 63 64 66 68 70 73 73 72 70 72 74 62 49 48 51 49 45 35 33 38 40 38 38 37 35 32 28 26 24 25
77 73 74 73 70 69 67 66 65 64 64 64 65 66 68 68 69 70 70 69 70 68 62 52 46 47 50 49 48 43 34 34 38 39 38 39 39 37 34 30 27 26 26 26
80 77 75 74 74 72 71 70 67 66 65 65 64 65 65 64 62 58 56 54 50 46 43 43 46 49 49 45 40 37 35 37 38 37 39 39 37 35 33 29 27 28 28 28
82 76 76 73 74 75 72 70 69 66 67 66 61 54 51 52 50 46 45 44 43 42 45 48 50 47 42 42 38 35 38 37 37 38 39 38 37 36 32 28 27 26 25 27
82 82 79 77 77 79 74 72 69 66 60 56 57 52 47 46 46 42 42 45 46 47 49 48 45 44 47 36 36 38 38 37 37 39 39 38 37 33 27 26 26 25 24 23
81 80 81 79 79 77 74 64 64 64 61 55 48 45 44 44 45 44 46 46 45 44 45 47 50 48 35 38 38 38 37 37 38 40 40 39 34 29 27 25 24 24 23 23
82 75 72 70 71 70 68 68 64 56 51 48 46 46 50 50 47 43 46 45 46 49 52 52 44 38 40 39 39 38 37 37 41 42 40 34 29 28 26 25 24 23 21 21
75 72 70 74 69 65 60 54 52 51 51 52 55 58 54 47 41 43 46 49 51 54 47 44 40 42 41 40 38 38 38 42 43 41 34 30 28 27 25 24 24 23 22 23
70 67 64 66 61 59 58 55 54 56 58 61 58 52 46 45 44 46 49 55 49 46 43 43 45 43 42 41 40 41 44 45 42 34 29 28 27 25 24 24 25 23 23 25
62 63 61 60 61 63 63 64 64 64 61 56 51 48 47 45 46 53 50 46 45 44 46 48 46 44 43 43 44 46 45 40 32 28 27 27 25 24 24 25 24 23 25 28
61 57 60 61 62 65 68 65 62 56 53 52 50 49 51 52 51 47 47 47 45 51 51 50 48 46 46 48 49 45 37 30 28 28 27 25 24 24 24 23 24 26 30 34
69 69 70 72 72 68 64 64 62 58 58 57 55 49 47 48 49 48 47 47 55 54 53 50 48 48 50 48 42 35 30 28 28 27 25 24 24 23 22 24 27 31 34 38
66 67 70 68 70 69 72 72 70 67 59 53 48 46 47 48 49 50 54 60 58 55 52 50 51 51 45 39 33 30 29 28 27 25 24 23 22 22 24 27 31 34 37 39
70 73 72 71 74 71 70 69 62 53 49 48 48 49 51 52 53 58 61 59 55 53 52 53 48 42 37 33 31 29 28 27 25 24 22 21 22 25 28 31 34 37 38 38
69 73 75 73 68 68 65 58 54 51 49 49 49 51 53 58 61 62 59 56 55 56 51 45 40 36 33 31 29 28 27 25 24 21 21 23 26 29 33 37 38 38 37 37
68 74 71 66 62 57 55 55 54 53 52 52 55 59 61 64 62 59 58 58 54 48 42 39 36 33 31 30 29 27 25 24 21 22 24 28 31 34 37 38 38 38 38 40
74 72 63 60 56 53 53 54 57 58 60 62 63 64 64 63 62 60 56 50 45 41 38 36 33 31 31 29 27 26 24 22 23 25 29 32 35 39 39 39 39 39 40 50
69 67 66 59 56 57 58 61 62 64 64 64 66 66 64 61 57 52 48 43 40 38 36 33 32 32 30 28 26 24 23 25 27 31 34 38 41 42 41 41 39 41 49 52
69 66 65 66 64 64 64 65 65 64 66 68 66 64 60 54 50 46 43 40 38 36 33 33 32 30 28 26 24 24 26 28 32 36 39 43 44 45 45 40 39 47 54 54